ECHOSTAR 17

Last updated on Sun Jun 21 2026 00:03:05 GMT+0000 (Coordinated Universal Time)

1 38551U 12035A 26171.01431685 -.00000080 00000+0 00000+0 0 9995 2 38551 0.0186 17.0829 0002204 68.9983 80.1950 1.00270699 51099
UTC large
Height (km)
Speed (km/s)
/
Latitude / Longitude
Inclination (degrees)
Orbital Period (minutes)
Azimuth
Elevation
Range (km)
Doppler Factor

Next 0 passes for location: London (51.5072 / 0.1276)

No passes found over London.
ECHOSTAR 17